Location: Bletchingley
(51.2333°N, 0.1000°W)
Time: 12:14:42
(UTC+00:00)

Cosmos 1655 Rocket - Pass Details

Date: 18 September 2020
Orbit: 971 x 1006 km, 82.9° (Epoch: 21 October)

Event Time Altitude Azimuth Distance (km) Brightness Sun altitude
Rises 21:03:19 0° 350° (N) 3,685 7.8 -26.1°
Reaches altitude 10° 21:05:51 10° 353° (N) 2,737 6.9 -26.4°
Maximum altitude 21:12:07 72° 78° (ENE) 1,031 3.9 -27.2°
Enters shadow 21:12:32 70° 108° (ESE) 1,045 3.9 -27.2°
